When you browse on this site, cookies collect data to enhance your experience and personalize the content and advertising you see.
Visit our Privacy Policy to learn more. By continuing to use the site, you agree to this use of cookies and data.
  • In Lithuania
  • List of Countries
  • For 7 days
  • Water Temperature
  • Satellite Maps
  • Weather Map
  • Weather Widgets
  • user-avatar
    Login

    Hourly Weather Edmonton

    Today, 20 May, Monday

    Time Temperature Precipitation Wind Pressure Humidity
    00:00 +7°C° 0 mm 4 mps 704 mmHg 51%
    01:00 +6°C° 0 mm 4 mps 704 mmHg 53%
    02:00 +5°C° 0 mm 4 mps 703 mmHg 55%
    03:00 +5°C° 0 mm 4 mps 703 mmHg 57%
    04:00 +5°C° 0 mm 3 mps 703 mmHg 61%
    05:00 +6°C° 0 mm 4 mps 703 mmHg 57%
    06:00 +8°C° 0 mm 5 mps 703 mmHg 54%
    07:00 +10°C° 0 mm 5 mps 703 mmHg 50%
    08:00 +11°C° 0 mm 6 mps 703 mmHg 47%
    09:00 +13°C° 0 mm 6 mps 703 mmHg 44%
    10:00 +14°C° 0 mm 7 mps 703 mmHg 40%
    11:00 +15°C° 0 mm 7 mps 703 mmHg 39%
    12:00 +15°C° 0 mm 7 mps 703 mmHg 38%
    13:00 +16°C° 0 mm 7 mps 702 mmHg 37%
    14:00 +16°C° 0 mm 6 mps 702 mmHg 39%
    15:00 +15°C° 0 mm 6 mps 702 mmHg 41%
    16:00 +14°C° 0 mm 6 mps 702 mmHg 44%
    17:00 +14°C° 0 mm 5 mps 702 mmHg 47%
    18:00 +13°C° 0 mm 4 mps 701 mmHg 51%
    19:00 +12°C° 0 mm 4 mps 701 mmHg 54%
    20:00 +11°C° 0 mm 4 mps 701 mmHg 56%
    21:00 +10°C° 0 mm 4 mps 701 mmHg 58%
    22:00 +8°C° 0 mm 4 mps 701 mmHg 59%
    23:00 +7°C° 0 mm 4 mps 701 mmHg 61%

    Tomorrow, 21 May, Tuesday

    Time Temperature Precipitation Wind Pressure Humidity
    00:00 +7°C° 0 mm 4 mps 701 mmHg 62%
    01:00 +7°C° 0 mm 4 mps 701 mmHg 63%
    02:00 +6°C° 0 mm 4 mps 701 mmHg 65%
    03:00 +6°C° 0 mm 4 mps 701 mmHg 67%
    04:00 +6°C° 0 mm 4 mps 701 mmHg 69%
    05:00 +7°C° 0 mm 4 mps 701 mmHg 65%
    06:00 +9°C° 0 mm 5 mps 701 mmHg 61%
    07:00 +12°C° 0 mm 5 mps 702 mmHg 58%
    08:00 +13°C° 0 mm 6 mps 702 mmHg 55%
    09:00 +14°C° 0 mm 6 mps 702 mmHg 52%
    10:00 +15°C° 0 mm 6 mps 702 mmHg 49%
    11:00 +15°C° 0 mm 6 mps 702 mmHg 50%
    12:00 +15°C° 0 mm 6 mps 703 mmHg 51%
    13:00 +15°C° 0 mm 6 mps 703 mmHg 52%
    14:00 +15°C° 0 mm 5 mps 703 mmHg 52%
    15:00 +15°C° 0 mm 5 mps 703 mmHg 53%
    16:00 +15°C° 0 mm 5 mps 703 mmHg 53%
    17:00 +14°C° 0 mm 4 mps 704 mmHg 57%
    18:00 +13°C° 0 mm 3 mps 704 mmHg 60%
    19:00 +14°C° 0 mm 2 mps 704 mmHg 64%
    20:00 +13°C° 0 mm 2 mps 704 mmHg 66%
    21:00 +12°C° 0 mm 2 mps 705 mmHg 68%
    22:00 +12°C° 0 mm 1 mps 705 mmHg 70%
    23:00 +11°C° 0 mm 1 mps 705 mmHg 71%

    Day after tomorrow, 22 May, Wednesday

    Time Temperature Precipitation Wind Pressure Humidity
    00:00 +11°C° 0 mm 1 mps 705 mmHg 72%
    01:00 +11°C° 0 mm 1 mps 705 mmHg 73%
    02:00 +10°C° 0 mm 1 mps 705 mmHg 75%
    03:00 +10°C° 0 mm 1 mps 706 mmHg 76%
    04:00 +9°C° 0 mm 1 mps 706 mmHg 78%
    05:00 +11°C° 0 mm 1 mps 706 mmHg 73%
    06:00 +12°C° 0 mm 1 mps 706 mmHg 68%
    07:00 +14°C° 0 mm 2 mps 706 mmHg 64%
    08:00 +15°C° 0 mm 2 mps 706 mmHg 59%
    09:00 +16°C° 0 mm 2 mps 706 mmHg 54%
    10:00 +17°C° 0 mm 2 mps 706 mmHg 50%
    11:00 +18°C° 0.1 mm 2 mps 706 mmHg 49%
    12:00 +18°C° 0.1 mm 2 mps 706 mmHg 47%
    13:00 +18°C° 0.1 mm 2 mps 706 mmHg 46%
    14:00 +19°C° 0 mm 2 mps 706 mmHg 46%
    15:00 +19°C° 0 mm 2 mps 706 mmHg 45%
    16:00 +19°C° 0 mm 2 mps 705 mmHg 45%
    17:00 +18°C° 0 mm 2 mps 705 mmHg 48%
    18:00 +17°C° 0 mm 2 mps 705 mmHg 52%
    19:00 +16°C° 0 mm 1 mps 705 mmHg 56%
    20:00 +15°C° 0 mm 1 mps 705 mmHg 56%
    21:00 +15°C° 0 mm 1 mps 705 mmHg 56%
    22:00 +14°C° 0 mm 1 mps 705 mmHg 56%
    23:00 +13°C° 0 mm 1 mps 705 mmHg 59%

    23 May, Thursday

    Time Temperature Precipitation Wind Pressure Humidity
    00:00 +12°C° 0 mm 1 mps 705 mmHg 61%
    01:00 +12°C° 0 mm 1 mps 705 mmHg 64%
    02:00 +11°C° 0 mm 1 mps 705 mmHg 65%
    03:00 +11°C° 0 mm 1 mps 705 mmHg 67%
    04:00 +11°C° 0 mm 1 mps 704 mmHg 68%
    05:00 +13°C° 0 mm 1 mps 705 mmHg 63%
    06:00 +14°C° 0 mm 1 mps 705 mmHg 59%
    07:00 +16°C° 0 mm 1 mps 705 mmHg 54%
    08:00 +18°C° 0 mm 1 mps 705 mmHg 49%
    09:00 +19°C° 0 mm 2 mps 704 mmHg 44%
    10:00 +20°C° 0 mm 2 mps 704 mmHg 40%
    11:00 +20°C° 0 mm 2 mps 704 mmHg 40%
    12:00 +20°C° 0 mm 2 mps 703 mmHg 41%
    13:00 +20°C° 0 mm 2 mps 703 mmHg 41%
    14:00 +20°C° 0 mm 2 mps 702 mmHg 41%
    15:00 +20°C° 0 mm 2 mps 702 mmHg 40%
    16:00 +20°C° 0 mm 2 mps 701 mmHg 40%
    17:00 +19°C° 0 mm 2 mps 701 mmHg 44%
    18:00 +18°C° 0 mm 2 mps 701 mmHg 48%
    19:00 +17°C° 0 mm 2 mps 700 mmHg 52%
    20:00 +16°C° 0 mm 2 mps 700 mmHg 54%
    21:00 +15°C° 0 mm 2 mps 699 mmHg 56%
    22:00 +14°C° 0 mm 2 mps 699 mmHg 57%
    23:00 +13°C° 0 mm 2 mps 699 mmHg 59%

    24 May, Friday

    Time Temperature Precipitation Wind Pressure Humidity
    00:00 +13°C° 0 mm 2 mps 698 mmHg 60%
    01:00 +12°C° 0 mm 2 mps 698 mmHg 62%
    02:00 +12°C° 0 mm 2 mps 698 mmHg 64%
    03:00 +11°C° 0 mm 1 mps 697 mmHg 66%
    04:00 +11°C° 0 mm 1 mps 697 mmHg 69%
    05:00 +13°C° 0 mm 1 mps 697 mmHg 64%
    06:00 +15°C° 0 mm 1 mps 697 mmHg 58%
    07:00 +18°C° 0 mm 1 mps 697 mmHg 53%
    08:00 +18°C° 0 mm 2 mps 697 mmHg 47%
    09:00 +20°C° 0 mm 2 mps 697 mmHg 41%
    10:00 +21°C° 0 mm 2 mps 697 mmHg 35%
    11:00 +21°C° 0 mm 2 mps 697 mmHg 36%
    12:00 +21°C° 0 mm 2 mps 697 mmHg 36%
    13:00 +21°C° 0 mm 2 mps 696 mmHg 36%
    14:00 +21°C° 0 mm 2 mps 696 mmHg 36%
    15:00 +23°C° 0 mm 2 mps 696 mmHg 36%
    16:00 +23°C° 0 mm 2 mps 696 mmHg 36%
    17:00 +20°C° 0 mm 2 mps 696 mmHg 41%
    18:00 +19°C° 0 mm 2 mps 696 mmHg 46%
    19:00 +18°C° 0 mm 2 mps 696 mmHg 51%
    20:00 +16°C° 0 mm 2 mps 696 mmHg 52%
    21:00 +15°C° 0 mm 1 mps 696 mmHg 53%
    22:00 +14°C° 0 mm 1 mps 696 mmHg 55%
    23:00 +14°C° 0 mm 2 mps 697 mmHg 60%

    25 May, Saturday

    Time Temperature Precipitation Wind Pressure Humidity
    00:00 +13°C° 0 mm 2 mps 697 mmHg 64%
    01:00 +12°C° 0 mm 3 mps 697 mmHg 69%
    02:00 +12°C° 0 mm 3 mps 698 mmHg 75%
    03:00 +11°C° 0 mm 4 mps 698 mmHg 80%
    04:00 +11°C° 0 mm 4 mps 699 mmHg 86%
    05:00 +9°C° 0.4 mm 5 mps 699 mmHg 86%
    06:00 +9°C° 0.4 mm 6 mps 700 mmHg 87%
    07:00 +8°C° 0.4 mm 6 mps 700 mmHg 87%
    08:00 +8°C° 2 mm 6 mps 701 mmHg 84%
    09:00 +7°C° 2 mm 6 mps 701 mmHg 81%
    10:00 +7°C° 2 mm 5 mps 702 mmHg 78%
    11:00 +9°C° 0.1 mm 6 mps 703 mmHg 68%
    12:00 +10°C° 0.1 mm 6 mps 704 mmHg 58%
    13:00 +13°C° 0.1 mm 6 mps 705 mmHg 48%
    14:00 +11°C° 0 mm 6 mps 705 mmHg 48%
    15:00 +11°C° 0 mm 7 mps 705 mmHg 48%
    16:00 +10°C° 0 mm 7 mps 705 mmHg 48%
    17:00 +9°C° 0 mm 6 mps 705 mmHg 51%
    18:00 +8°C° 0 mm 5 mps 705 mmHg 54%
    19:00 +7°C° 0 mm 5 mps 705 mmHg 57%
    20:00 +6°C° 0 mm 4 mps 706 mmHg 61%
    21:00 +4°C° 0 mm 4 mps 706 mmHg 64%
    22:00 +3°C° 0 mm 4 mps 707 mmHg 67%
    23:00 +3°C° 0 mm 4 mps 707 mmHg 71%
    Show more